Theta_e
322 322 321 319 320 322 322 320 318 315 311 308 307 307 308 310 313 311 306 305 305 305 306 306 306 307 307 307 307 307 307 308 307 308 308 309 308 309 312 312 311 312 313 313 312 312 311 310 311 312 313 313 313 313 313 313 314 314 314 314 316 316 316 315 313 310 309 309 309 309 309 309 309 310 311 310 310 309 308 309 309 308 308 309 309
322 321 322 322 321 320 321 321 321 319 315 309 306 307 307 306 308 308 306 305 305 305 306 306 307 307 308 308 308 308 309 308 309 309 309 309 309 310 312 312 310 310 312 311 310 311 311 310 309 310 311 314 315 314 314 314 313 314 314 314 315 315 314 314 314 312 311 311 310 311 311 311 311 310 311 310 310 310 309 309 310 309 309 309 309
321 321 324 326 324 321 320 320 322 321 319 313 307 307 307 306 307 306 305 305 305 308 310 308 308 308 307 308 308 308 309 309 309 309 309 309 309 309 310 310 309 309 310 312 312 310 310 309 309 309 309 312 313 313 314 315 314 314 315 315 315 315 315 315 316 316 314 313 312 311 312 312 311 311 311 311 311 310 310 310 310 309 309 309 310
324 323 325 325 325 323 321 321 321 322 322 317 309 308 308 306 307 305 306 306 304 310 314 310 310 312 310 310 309 309 309 309 309 309 309 309 309 309 309 309 309 308 310 314 314 312 311 310 309 309 308 309 310 311 313 315 315 315 316 316 316 316 317 317 316 316 315 314 312 312 313 313 312 311 311 311 311 311 311 310 311 310 310 310 310
325 324 324 325 326 324 321 321 321 321 324 321 314 312 310 307 307 306 307 308 308 314 316 312 314 317 315 315 315 313 312 310 309 310 309 309 310 309 310 311 312 311 312 315 315 315 315 314 314 313 311 310 311 313 314 316 316 316 316 317 316 316 316 317 317 316 316 315 314 313 313 313 313 312 312 312 311 312 311 311 311 311 311 311 310
325 325 325 325 326 325 323 321 320 321 324 323 319 318 315 309 307 308 311 314 314 318 318 315 317 318 317 319 319 318 318 315 314 315 313 313 314 314 315 316 316 316 317 317 316 317 317 317 318 317 315 314 314 315 315 315 316 315 315 315 316 315 315 316 316 316 316 316 316 315 314 314 314 313 312 312 311 311 311 311 311 311 311 311 310
326 326 327 327 326 327 325 322 321 322 325 324 321 322 319 313 310 312 317 319 319 320 319 317 319 319 318 320 319 319 320 319 319 320 319 319 320 318 319 319 317 318 318 317 318 318 318 318 319 318 317 316 316 316 315 314 315 315 315 315 314 314 315 316 316 316 316 316 316 315 315 314 314 313 312 312 312 311 311 311 311 311 311 310 309
327 326 327 327 326 326 326 325 324 324 324 324 323 323 321 318 317 318 320 320 320 321 319 319 320 320 319 320 319 319 320 320 320 320 321 322 321 320 320 320 319 319 320 320 320 320 320 320 320 319 319 318 317 317 316 316 316 315 314 315 314 314 315 315 315 315 316 316 315 315 315 315 314 313 313 313 313 312 312 312 312 312 311 310 309
327 327 327 326 326 326 325 325 324 323 323 323 323 322 321 320 320 320 320 320 320 321 320 320 320 320 319 319 319 319 320 320 319 319 320 322 322 320 320 321 321 320 321 321 320 319 319 319 319 319 320 320 319 318 318 318 318 316 315 315 315 315 315 315 315 315 315 316 316 315 315 314 314 314 314 313 313 313 313 312 312 311 311 310 310
327 327 326 326 326 326 326 325 324 323 323 324 324 321 320 320 320 319 319 320 320 320 320 320 320 320 320 320 319 319 320 319 318 318 320 322 321 319 320 320 319 318 318 318 319 319 318 318 318 317 318 319 320 319 318 318 318 317 317 317 317 316 316 315 315 315 315 315 315 315 315 315 314 314 314 314 313 312 312 311 311 311 310 310 310
326 326 326 326 326 326 326 325 325 325 324 324 324 322 321 321 320 320 320 320 320 320 320 320 320 320 320 320 320 320 319 318 318 319 320 321 320 319 319 320 318 317 316 316 317 318 318 317 317 316 316 317 319 319 318 318 318 318 318 317 317 317 316 316 316 315 315 315 315 315 315 315 314 314 314 313 313 312 312 311 311 310 310 310 309
324 325 325 325 325 325 325 325 325 325 325 324 324 323 322 322 321 320 320 320 320 321 321 320 320 319 320 320 320 319 318 317 317 318 318 317 317 317 318 319 318 317 317 316 316 317 317 316 316 316 315 316 318 317 317 317 318 318 317 317 317 316 316 316 316 316 316 315 315 315 315 314 314 314 314 313 313 312 312 312 311 310 309 309 308
323 323 324 325 324 325 325 324 324 324 324 324 324 324 323 322 321 321 321 320 321 321 321 321 320 319 319 320 320 320 319 318 317 317 316 315 314 316 317 318 317 316 316 316 316 316 317 316 316 315 315 315 314 312 311 312 313 314 314 315 315 316 316 316 316 316 316 316 315 315 314 314 314 313 313 313 312 312 312 311 310 309 309 308 308
320 321 321 322 322 323 323 324 324 323 323 323 323 323 323 322 321 321 320 320 320 321 321 321 320 319 319 319 320 320 319 317 316 316 315 314 315 317 317 317 316 316 316 315 315 316 316 316 315 314 314 313 310 309 310 310 309 309 310 310 311 311 312 312 312 313 314 315 315 314 313 313 313 313 313 312 312 311 310 310 309 308 308 308 307
315 316 316 316 318 319 319 320 321 322 322 322 322 322 322 321 321 320 320 319 319 319 320 320 320 319 319 318 319 318 317 317 316 316 316 315 316 317 317 316 316 315 315 316 315 316 316 315 315 315 315 312 309 311 313 310 307 306 307 307 307 306 306 306 307 308 310 312 314 314 314 313 313 312 312 311 311 310 309 308 308 307 307 307 306
313 313 313 313 313 314 314 315 317 318 319 320 320 320 320 320 319 318 318 318 318 318 319 319 318 318 318 317 317 316 317 317 316 316 316 316 316 316 315 315 315 315 315 315 315 315 315 315 315 315 314 313 310 310 310 307 307 309 309 307 304 303 304 304 305 306 309 311 312 313 313 312 312 311 310 310 309 309 308 307 307 306 306 305 304
311 312 312 312 312 312 312 313 313 314 315 315 316 317 318 318 318 317 317 317 318 317 317 317 317 318 317 317 316 316 317 317 317 317 316 315 314 313 310 312 314 315 315 315 315 315 315 314 314 314 313 312 309 306 305 304 306 310 313 311 307 306 306 304 304 305 307 310 312 312 312 311 310 310 309 309 308 307 307 306 305 304 303 302 302
309 309 310 311 311 312 312 312 312 312 313 313 314 316 316 316 317 317 317 317 317 316 315 314 315 316 315 315 315 316 317 316 317 317 315 313 311 309 308 312 315 314 314 315 315 315 314 313 312 311 310 308 306 303 303 302 302 305 311 313 312 310 308 306 305 306 307 308 310 310 310 310 310 309 309 308 307 305 304 303 302 301 301 300 299
307 308 308 309 309 310 311 312 312 312 312 313 314 314 315 315 315 316 316 316 316 315 314 313 314 315 316 316 316 316 316 314 314 314 313 310 308 306 309 313 314 313 314 314 314 314 314 311 308 306 305 304 302 302 301 301 301 302 307 311 312 311 310 308 308 308 307 307 307 306 307 307 307 307 306 305 304 302 301 300 300 300 300 299 299
306 306 306 307 308 309 310 311 311 311 311 312 312 313 313 313 314 314 315 315 315 315 315 314 315 315 316 316 316 315 314 312 310 309 307 306 303 303 309 314 313 312 313 314 313 313 312 308 304 302 302 302 301 301 301 300 301 302 305 309 310 310 310 310 309 309 308 308 307 306 305 304 303 303 302 302 301 301 300 300 300 299 299 299 299
304 304 304 305 306 307 308 308 309 308 309 309 310 311 311 312 312 313 313 313 314 314 314 314 314 314 314 315 315 314 313 312 308 305 303 302 301 302 307 313 313 312 313 313 312 312 311 307 304 302 301 301 300 301 300 300 300 302 305 308 309 309 309 309 309 309 308 307 306 304 303 303 302 302 302 301 301 300 300 300 300 299 299 299 299
301 300 301 302 304 305 305 305 305 305 306 306 307 308 309 309 311 312 312 312 312 312 312 312 312 312 312 312 313 312 312 310 307 303 301 301 302 301 305 310 312 312 312 311 312 312 311 309 305 302 301 301 300 300 300 300 300 301 302 305 306 306 307 308 308 307 306 305 304 303 303 303 302 302 301 300 300 300 300 299 299 299 299 299 298
300 299 299 300 300 301 301 301 302 303 304 304 305 305 306 307 308 310 311 311 312 312 311 311 311 311 311 311 311 311 310 309 307 303 301 302 303 302 305 309 311 311 311 311 311 311 311 310 307 303 300 300 300 300 300 300 300 300 300 301 302 303 304 305 305 304 303 303 302 302 302 301 301 301 300 300 300 300 300 299 299 298 298 297 297
301 301 300 299 299 300 301 301 302 303 304 304 305 306 305 305 305 307 308 310 311 311 311 311 311 311 310 310 310 310 310 309 308 305 303 303 304 303 304 306 308 309 308 309 310 309 310 310 307 302 300 300 301 300 300 300 300 300 300 300 300 301 301 301 301 302 301 301 301 300 300 300 300 300 300 300 299 299 298 298 298 297 296 296 296
301 301 301 301 301 301 301 302 303 303 304 304 305 305 305 304 305 305 306 307 309 310 311 311 311 310 310 310 310 310 309 310 311 308 304 303 304 304 304 304 305 305 305 306 308 309 309 309 304 301 300 301 301 300 300 300 301 301 301 301 301 301 300 300 300 300 300 300 300 299 299 299 299 299 299 298 297 297 296 296 296 296 296 296 296
301 301 302 302 301 301 301 301 301 302 302 303 304 304 304 305 305 305 305 306 307 308 309 310 310 310 310 310 310 309 309 310 311 310 307 304 304 304 304 304 305 304 303 305 308 309 308 306 301 300 301 301 300 301 301 301 301 301 302 301 301 300 300 300 299 299 299 298 298 299 299 298 298 298 297 296 296 295 295 295 295 295 295 295 295
301 301 301 301 302 302 302 302 302 302 302 302 303 303 304 303 304 304 305 305 306 306 307 308 309 309 310 310 310 310 309 309 310 310 309 306 304 304 304 304 303 303 303 306 309 309 307 303 300 300 301 301 301 301 301 301 302 302 302 301 300 299 299 299 298 297 297 297 298 298 298 298 298 297 296 296 295 295 295 295 294 294 294 294 293
299 300 300 300 301 301 301 301 302 302 302 302 302 302 302 302 302 303 304 304 304 304 305 307 307 308 309 309 310 310 310 309 308 308 309 307 305 303 303 303 303 302 303 305 307 308 305 301 300 301 301 301 301 302 302 302 302 301 300 299 299 299 299 298 297 297 297 297 298 297 297 296 296 295 295 295 295 294 294 294 293 293 293 292 292
298 299 299 299 299 299 300 300 300 301 301 301 301 301 301 301 301 302 302 302 302 303 304 305 306 307 308 309 309 309 308 308 308 307 308 308 306 303 303 303 303 303 302 303 305 305 302 301 301 301 301 301 302 303 302 302 300 300 299 299 298 298 298 298 297 297 297 297 296 295 295 295 295 295 294 294 294 294 293 293 292 292 291 291 291
298 298 298 299 299 299 299 299 299 300 300 300 300 300 301 301 301 301 301 301 301 302 303 303 304 306 307 307 308 308 308 308 308 307 307 308 307 305 304 303 303 302 302 302 302 302 301 301 301 301 301 302 303 302 301 300 299 299 299 299 297 297 297 297 296 296 296 295 295 294 294 294 294 294 294 293 293 293 292 291 291 291 291 292 292
297 297 297 297 298 298 298 298 299 299 299 299 299 299 299 300 300 300 300 300 300 301 301 301 301 302 303 304 305 306 306 307 307 306 306 307 307 306 305 304 303 303 302 301 302 302 302 302 302 302 303 303 302 301 301 300 299 298 298 297 297 297 296 295 295 295 294 294 293 294 294 294 294 294 293 293 293 292 291 291 291 291 291 291 291
296 296 296 296 297 297 297 297 297 298 298 298 298 298 299 299 299 299 299 300 300 300 300 300 300 300 300 301 301 302 303 304 304 304 305 306 306 306 305 304 303 303 303 302 301 302 302 303 303 303 303 302 301 300 300 299 298 297 297 296 296 296 295 295 294 294 294 293 293 293 294 294 294 293 293 293 292 292 291 291 291 291 291 291 291
295 295 296 296 296 296 296 296 296 297 297 297 298 298 298 298 298 299 299 299 299 300 300 300 300 300 299 299 299 299 300 300 300 301 303 305 305 306 305 304 303 303 303 302 302 303 303 303 303 303 302 301 301 300 299 298 298 297 297 296 295 295 295 294 294 294 294 293 293 293 293 294 293 293 293 292 292 291 291 291 291 291 291 291 291
295 295 296 296 296 296 296 296 296 296 296 297 297 297 297 297 298 298 298 298 299 299 299 299 300 300 300 299 299 299 299 299 298 299 300 302 304 305 306 305 304 303 303 302 303 304 303 303 303 302 301 301 300 299 298 298 298 297 296 296 295 295 294 294 293 293 293 292 292 293 293 293 293 293 292 292 291 291 291 291 291 291 291 291 290
296 296 296 296 296 296 296 296 296 297 297 297 296 296 296 296 297 297 297 297 298 298 298 299 299 300 300 300 300 300 300 299 298 298 300 302 304 305 305 305 305 304 304 303 304 304 303 302 302 301 301 300 299 298 298 298 297 296 296 295 294 294 293 293 293 293 292 291 292 293 293 293 293 293 292 292 292 291 291 291 291 291 290 290 290
296 296 296 296 296 296 296 297 297 297 297 296 296 296 296 296 296 296 297 297 297 297 297 298 298 299 300 300 301 301 301 299 298 298 300 302 303 304 304 304 304 303 302 302 302 302 302 301 301 300 300 299 298 298 297 297 296 295 295 294 294 293 293 292 292 292 292 291 292 293 292 292 292 292 292 292 292 292 291 291 291 290 290 290 290
296 296 296 296 295 295 295 296 296 297 297 296 296 296 296 296 296 295 295 296 297 297 297 297 298 298 299 299 299 300 300 299 298 298 300 301 302 302 302 302 302 302 301 301 301 301 301 300 300 300 299 298 298 297 297 296 295 295 295 294 293 293 292 292 292 292 292 292 292 292 291 291 292 292 292 292 291 291 291 291 290 290 290 290 290
296 296 296 296 295 295 295 296 296 296 296 296 296 295 295 295 295 294 294 295 296 296 297 297 297 297 298 299 299 299 300 299 298 298 300 301 301 301 302 302 301 301 301 300 300 300 300 300 300 299 299 298 297 296 296 295 295 295 294 294 293 292 292 292 292 292 293 292 292 291 290 290 291 291 291 291 291 291 291 290 290 290 290 290 290
297 296 296 295 295 295 295 295 295 295 295 295 295 294 294 294 294 294 294 294 295 296 296 297 297 296 297 298 299 299 300 299 298 298 299 300 300 300 301 301 300 299 300 300 300 300 300 300 299 299 298 297 297 296 295 295 295 294 294 293 293 292 292 292 292 292 292 292 291 290 289 289 290 290 291 291 291 291 290 290 289 289 290 290 290
297 296 295 295 295 295 295 295 295 294 295 294 294 294 294 294 294 294 294 294 294 295 295 296 296 296 296 297 298 299 299 299 298 298 299 300 300 299 299 300 300 299 300 300 300 299 299 299 298 298 298 297 296 296 295 294 294 293 293 293 292 292 291 291 292 292 292 291 290 289 289 289 290 290 290 290 290 290 289 289 290 290 290 290 290
297 296 295 295 295 295 295 295 294 294 294 294 293 294 294 293 293 294 294 294 294 295 295 296 296 295 296 297 298 298 299 299 299 298 298 299 299 299 299 300 300 300 300 300 299 299 298 298 298 297 297 297 296 295 294 294 293 293 293 292 292 291 291 291 292 292 291 291 290 289 289 290 290 290 290 290 290 289 289 289 290 290 290 291 291
297 296 295 295 295 295 295 295 294 294 294 293 293 293 293 293 293 293 294 294 294 294 295 295 295 295 296 297 298 298 298 299 299 299 299 299 298 297 298 298 298 298 298 298 298 298 298 297 297 296 296 296 295 294 293 293 293 292 292 292 292 291 291 291 292 292 291 290 289 289 289 290 290 290 290 290 290 289 289 290 290 290 291 291 291
297 296 295 295 295 295 295 295 294 294 294 293 293 293 293 293 293 294 294 294 294 294 294 295 295 296 297 297 298 298 298 298 298 298 297 297 297 297 297 297 297 298 298 297 297 297 297 296 296 296 295 294 294 293 292 292 292 291 291 292 292 292 292 291 291 291 290 290 289 289 289 290 290 290 290 290 289 289 290 290 290 291 291 291 291
297 296 295 295 295 294 294 294 294 294 294 294 293 293 293 293 294 294 294 295 295 295 295 295 295 296 296 297 297 298 297 297 297 297 296 296 297 297 297 297 297 297 297 296 296 296 296 295 295 294 294 293 293 293 292 292 292 292 292 292 292 291 290 290 289 289 289 289 289 289 289 290 290 290 290 289 289 290 290 290 291 291 290 290 291
297 296 296 295 295 295 294 294 294 294 294 293 293 293 293 293 294 294 294 294 295 295 295 295 295 295 295 296 297 297 297 297 297 297 297 297 297 297 297 297 297 297 296 295 295 295 295 294 294 294 293 293 293 292 292 291 291 291 291 291 290 289 288 288 288 288 288 288 288 289 289 289 290 290 290 289 289 290 290 291 291 290 290 291 291
297 296 296 296 295 295 295 294 294 294 293 293 293 293 293 293 293 293 294 294 294 294 294 295 295 295 295 295 296 296 296 296 296 296 296 296 296 297 297 296 296 295 295 294 294 294 293 293 293 293 293 293 292 292 291 291 291 291 290 289 288 288 288 288 288 288 287 288 288 288 289 289 289 289 289 289 290 290 290 290 290 290 291 291 291
297 296 296 296 295 295 295 294 294 294 294 293 293 293 293 293 293 293 293 293 294 294 294 295 295 295 295 295 295 296 296 296 296 295 295 296 296 296 295 295 295 294 294 293 293 293 293 293 293 292 292 292 292 292 291 291 291 290 289 288 288 288 288 288 288 288 287 287 287 288 288 289 289 289 289 289 290 290 290 290 290 291 291 292 292
296 296 296 296 296 295 295 295 294 294 294 294 293 293 293 293 293 293 293 293 293 293 294 294 294 294 295 295 295 295 295 294 294 294 294 295 295 295 294 295 294 294 294 293 293 293 292 292 292 291 292 292 291 291 290 290 290 289 288 288 288 289 289 289 290 289 288 287 287 288 288 288 289 288 288 289 290 290 290 290 290 291 292 292 292
296 296 296 296 296 295 295 295 294 294 294 294 294 294 293 293 293 293 293 293 293 293 293 293 293 293 293 293 293 293 293 293 293 293 294 294 294 294 294 294 293 293 293 292 292 291 291 291 291 291 291 291 291 290 290 289 289 288 288 288 289 289 289 290 290 290 289 287 287 287 288 288 288 288 288 289 289 289 290 290 291 291 291 291 291
295 295 296 296 295 295 295 295 294 294 294 293 294 294 294 294 294 293 293 293 293 293 293 292 292 292 293 293 293 293 293 293 293 293 294 294 294 294 294 293 293 293 292 291 290 290 291 291 291 291 291 291 290 290 289 288 288 288 288 289 290 290 290 290 290 291 290 289 288 287 287 288 288 288 288 289 289 289 290 290 290 291 291 291 291
294 295 295 295 295 295 295 294 294 294 293 293 293 293 293 293 293 293 293 294 293 293 293 293 293 293 293 293 294 294 294 294 294 294 294 294 293 293 293 293 293 293 292 290 289 290 291 291 291 291 291 290 290 289 288 288 288 288 289 290 290 291 291 291 291 291 291 291 290 289 288 287 287 287 288 289 289 289 290 290 290 291 291 290 291
Wind_Speed
28 26 25 24 23 21 19 17 16 15 13 12 12 13 14 16 16 15 13 13 12 11 10 8 8 8 8 8 8 8 9 9 9 9 9 10 10 11 10 8 9 10 10 10 10 10 9 9 10 11 11 12 10 9 9 8 9 9 8 8 9 9 6 7 9 11 9 8 8 5 6 6 3 1 6 10 10 6 5 11 13 10 10 12 13
27 26 23 22 23 22 20 18 17 16 14 13 14 14 16 17 18 17 16 15 14 12 11 10 9 9 9 9 8 8 8 8 8 7 7 7 7 8 7 5 5 6 6 6 6 6 5 4 6 7 8 11 11 8 6 7 9 10 10 10 10 8 4 3 5 7 8 8 7 5 7 6 5 3 5 9 12 6 1 7 10 9 11 12 14
25 24 20 20 22 22 22 21 19 17 16 15 15 16 17 18 18 18 16 15 15 13 11 12 11 10 10 9 9 9 9 8 8 7 6 6 5 5 4 3 3 3 3 4 2 2 2 1 2 3 5 8 9 7 9 10 8 9 10 10 11 12 9 5 5 6 6 6 6 7 4 3 4 1 5 8 11 6 1 3 6 4 7 12 15
22 22 20 20 21 22 23 22 20 18 17 17 17 18 18 17 16 16 16 15 15 13 11 11 11 10 10 10 9 10 9 9 8 7 7 6 5 5 4 3 2 3 2 3 2 3 2 3 3 2 3 5 5 5 7 8 5 5 8 6 7 10 12 9 6 4 5 6 6 7 3 1 4 1 4 3 6 6 2 4 6 3 5 9 14
21 21 20 20 21 22 23 24 22 21 20 19 19 19 18 17 17 16 15 14 13 12 11 11 11 10 10 9 9 9 9 9 9 8 8 7 6 6 6 5 5 5 4 5 5 4 3 3 3 3 4 4 3 5 6 7 7 6 7 5 6 7 8 8 7 5 6 4 3 5 3 1 1 1 1 1 2 3 2 1 1 3 4 6 10
18 18 18 18 20 21 24 26 26 23 21 20 21 21 18 17 18 16 14 12 12 11 11 11 11 11 10 10 9 8 8 8 7 8 8 7 7 7 7 7 6 5 6 6 5 5 6 4 5 6 4 3 5 6 7 8 9 9 9 7 8 6 4 6 5 4 6 5 1 3 3 3 3 2 1 4 6 4 5 6 6 8 7 8 11
15 15 15 16 18 20 23 26 25 22 21 21 21 20 18 16 16 15 14 12 12 13 13 12 12 11 10 9 9 8 7 8 8 9 8 7 7 8 8 9 7 6 7 6 5 6 8 6 7 8 5 5 7 8 7 7 7 8 8 8 8 6 3 3 4 4 7 5 1 2 3 4 4 4 5 7 7 6 7 8 8 9 10 13 16
15 15 14 14 15 17 19 21 21 20 20 22 21 18 16 14 13 12 12 12 12 14 13 12 12 13 11 10 10 10 11 13 13 11 10 10 10 10 10 10 9 9 9 8 7 9 8 8 9 8 6 6 8 8 7 7 7 7 9 9 10 10 8 5 5 5 5 4 3 4 5 5 6 7 9 8 7 8 10 11 13 15 16 18 21
14 13 12 12 13 14 15 15 15 16 17 20 20 17 15 16 15 13 13 13 13 14 13 12 12 13 12 12 14 14 16 17 14 10 9 11 11 11 11 12 11 10 10 11 12 12 11 12 11 9 8 9 9 8 7 6 6 8 10 10 11 12 10 6 5 4 3 4 4 5 6 6 7 9 8 7 9 11 13 16 18 20 21 23 23
9 8 7 8 9 10 11 12 13 14 15 17 17 15 16 18 19 17 16 16 16 16 15 15 14 14 15 16 18 18 17 16 15 12 12 12 13 13 14 15 14 12 13 15 16 15 15 15 14 12 11 11 10 9 9 7 7 9 10 10 10 9 8 5 6 5 6 7 5 4 6 7 7 8 8 7 8 10 13 16 18 19 21 23 21
6 6 5 5 6 7 8 10 13 14 15 14 13 13 15 18 20 20 19 18 18 18 18 18 17 18 19 19 19 18 17 16 15 15 15 14 14 15 17 17 17 17 17 17 18 18 17 17 17 14 12 11 11 11 10 8 8 9 10 10 10 8 7 6 6 7 9 10 8 7 8 9 9 9 11 12 11 10 13 15 17 19 20 20 19
5 5 4 4 4 5 5 7 11 12 12 11 10 10 11 14 17 19 19 19 19 19 20 21 21 21 22 21 20 19 17 17 17 18 19 18 16 16 18 20 19 19 18 17 17 17 15 14 16 14 11 9 9 9 8 7 8 10 9 9 10 10 8 7 7 8 10 11 11 10 8 9 11 12 14 16 16 16 17 19 20 21 21 20 21
5 6 5 5 4 4 5 6 7 7 7 6 7 7 8 10 12 14 16 19 22 23 23 23 23 23 23 22 20 17 15 16 17 18 19 19 17 16 19 21 19 17 16 14 11 12 10 9 11 11 9 8 7 7 6 6 6 7 8 9 10 10 9 9 9 10 11 13 14 13 12 12 14 16 16 17 18 19 21 22 22 23 22 22 24
8 8 7 8 7 5 4 5 5 5 5 4 4 5 5 6 8 9 11 17 21 23 24 24 24 24 24 22 19 17 16 17 17 17 17 17 17 16 17 17 13 8 7 5 4 6 7 6 7 7 7 7 7 6 5 5 5 5 6 7 8 9 10 10 11 11 13 14 15 16 18 19 19 20 19 19 20 21 22 22 23 23 24 25 27
10 10 9 10 10 8 7 6 5 4 3 3 3 4 4 5 8 9 10 12 15 17 19 21 22 21 21 21 21 20 20 19 19 19 19 17 15 13 12 10 7 6 6 5 6 8 8 7 5 5 6 7 6 6 5 5 5 5 6 7 8 9 9 11 12 12 13 13 15 17 19 20 21 21 20 20 21 22 22 23 23 24 26 28 28
10 10 10 11 10 9 9 8 7 6 5 4 3 0 2 4 6 9 10 11 12 14 14 16 17 18 19 21 21 21 19 18 19 19 17 15 13 11 10 9 9 7 6 7 8 8 9 8 7 8 8 7 5 5 6 6 5 6 8 10 10 10 10 11 11 12 12 13 14 15 17 18 18 19 19 20 22 22 22 23 24 25 27 28 28
12 12 11 11 10 8 8 7 6 5 5 4 3 2 2 2 3 5 6 8 9 11 11 12 13 15 17 18 19 18 17 16 16 16 14 13 12 12 11 10 8 7 9 10 11 11 12 13 12 12 10 8 6 5 5 6 6 7 8 10 12 11 10 10 10 11 12 13 14 15 16 18 18 19 19 21 22 23 24 25 25 25 25 25 26
12 12 12 12 11 9 7 7 6 5 5 5 2 1 2 3 5 5 5 5 7 8 8 9 10 11 12 13 15 15 15 14 14 14 15 14 14 13 12 10 9 11 13 14 14 14 13 14 14 12 10 7 7 6 6 6 6 7 8 8 10 12 12 11 11 11 11 12 13 15 16 18 18 19 21 22 23 23 23 22 22 22 21 22 23
8 7 8 9 10 9 7 5 2 2 3 4 3 2 1 2 4 7 7 5 5 6 7 7 7 8 9 10 12 13 12 11 13 15 15 15 15 15 14 12 11 14 14 14 15 15 14 14 13 11 10 8 7 7 7 7 7 8 8 9 10 14 15 14 14 15 14 13 13 14 16 18 19 21 21 21 19 18 18 18 19 20 20 20 20
7 6 7 8 9 8 6 5 5 3 2 2 2 2 2 2 2 5 8 7 6 8 8 7 7 8 8 10 13 14 13 11 12 14 15 15 15 16 17 13 11 15 15 13 15 15 14 14 13 10 9 8 7 8 7 7 8 9 10 11 13 14 16 16 17 18 17 16 17 17 18 19 18 17 15 14 14 15 16 16 16 15 16 16 16
9 9 9 8 7 8 8 9 11 12 10 9 8 8 7 7 5 5 7 8 9 10 10 10 11 10 10 13 16 18 16 14 13 14 15 16 16 18 19 14 10 15 17 14 15 15 12 11 10 8 7 8 8 8 7 7 8 9 10 12 14 14 16 17 17 17 17 17 17 17 15 14 12 11 12 13 15 14 12 11 12 12 13 14 16
14 13 11 9 9 11 12 14 16 17 16 15 14 13 13 12 9 7 8 9 11 11 11 11 12 12 13 15 18 18 17 17 15 15 17 18 17 18 20 16 12 14 16 14 14 15 11 9 8 6 6 7 7 6 7 7 7 9 11 13 15 15 16 16 16 16 16 16 14 12 10 10 10 10 11 12 13 12 10 9 10 12 13 16 19
14 14 14 14 15 16 16 17 17 18 18 18 17 16 16 16 14 12 10 10 11 13 13 12 12 14 15 16 17 18 18 18 16 16 18 19 18 19 21 18 15 15 15 15 16 16 13 11 9 6 5 6 5 5 6 7 8 9 10 12 14 15 16 17 17 16 15 14 13 11 11 11 11 11 11 13 15 16 16 17 18 19 21 24 25
13 14 15 16 16 15 14 14 14 15 15 16 16 16 18 19 19 18 16 14 14 15 16 15 15 16 17 17 17 16 17 18 18 18 19 20 19 19 19 19 18 17 15 15 16 16 15 13 11 8 6 6 5 6 7 8 9 10 11 11 12 13 14 14 13 11 10 10 10 9 8 8 10 13 16 18 20 22 23 23 23 24 26 27 25
14 15 14 14 15 14 14 13 13 13 14 15 16 17 18 18 19 19 19 18 18 18 18 18 18 19 20 21 21 19 19 21 21 21 22 21 20 19 18 18 18 17 16 17 17 16 16 14 12 9 8 7 7 7 7 9 10 11 11 12 11 11 9 8 8 8 9 8 8 8 9 10 13 16 19 21 21 21 19 18 18 21 23 25 24
13 14 14 15 16 16 16 16 15 15 15 15 16 17 17 17 19 19 19 19 20 20 21 21 21 22 22 23 23 23 22 23 23 24 24 24 22 20 19 19 17 16 17 18 18 16 16 14 12 9 8 8 7 7 8 9 10 11 12 11 9 7 6 6 8 10 11 10 8 8 10 11 14 17 19 19 18 16 16 16 19 21 22 23 22
13 13 14 14 15 15 15 16 16 16 16 16 16 17 16 17 18 19 19 19 20 21 22 22 23 25 24 23 24 26 26 27 26 25 24 25 25 23 22 21 18 17 19 20 19 18 16 14 11 10 10 9 8 8 9 10 10 11 10 8 5 5 6 7 9 9 9 8 7 8 11 13 15 17 18 17 17 16 16 17 18 19 19 20 20
14 14 15 15 15 15 16 17 18 18 17 17 18 18 18 18 18 18 18 18 19 20 21 20 21 23 24 23 24 26 27 28 27 25 24 26 28 26 24 21 19 18 18 20 20 19 17 14 11 11 11 10 10 10 10 10 10 9 6 3 3 5 8 9 7 4 4 6 8 12 14 15 15 16 17 17 17 15 15 15 17 18 18 18 18
12 13 14 15 15 16 16 17 18 18 18 18 18 19 19 19 20 21 21 21 21 21 19 17 16 17 18 20 22 25 26 26 26 26 25 25 27 28 24 20 18 18 19 20 20 19 16 14 13 13 12 12 12 11 9 8 7 6 4 3 4 5 7 7 4 3 6 10 12 13 13 11 12 14 16 16 15 14 15 16 16 17 17 17 17
12 12 12 12 13 14 14 14 14 15 16 17 19 20 20 19 20 21 22 23 24 24 22 21 19 16 15 15 16 19 22 25 26 26 25 24 26 29 26 20 18 19 19 20 20 19 16 15 15 14 13 13 12 9 7 7 7 7 7 6 5 7 9 8 7 8 11 12 11 10 9 10 12 15 16 15 15 17 17 16 16 16 17 18 18
13 13 13 12 14 15 15 14 15 16 15 14 16 19 20 20 21 22 21 20 21 23 26 28 28 24 22 20 18 17 19 21 21 21 24 27 29 28 24 22 22 23 23 22 22 21 19 18 17 16 15 13 9 7 9 10 8 8 8 7 6 7 8 8 9 10 10 9 7 6 7 10 13 15 15 15 17 18 18 16 16 16 17 18 18
11 12 12 13 14 15 15 16 18 19 19 18 18 18 19 19 19 21 22 20 19 19 21 25 28 27 26 27 26 24 23 22 20 17 19 24 27 24 21 23 27 29 29 27 25 23 23 21 19 17 15 11 9 11 14 14 11 9 7 6 6 6 5 6 8 9 8 7 7 6 7 9 12 14 15 16 16 17 17 17 17 17 18 18 18
10 10 10 11 12 13 13 14 16 17 18 20 20 21 22 20 19 19 20 20 19 18 17 18 21 23 24 25 26 27 25 23 22 20 18 19 22 22 22 26 30 31 30 29 26 24 23 21 17 14 13 12 13 16 17 16 13 11 10 8 6 5 5 6 7 6 5 8 9 7 7 11 14 15 16 16 16 16 17 18 18 17 18 18 18
8 8 9 10 11 11 11 11 11 12 14 16 18 21 22 23 23 23 22 21 22 22 17 14 14 17 20 22 22 22 22 21 22 23 22 21 22 21 22 27 30 30 30 30 27 23 19 17 15 15 15 15 17 18 17 14 12 12 11 9 8 7 7 7 6 5 7 9 8 6 7 12 15 16 17 17 17 17 17 18 18 17 17 18 19
8 8 9 10 11 11 11 11 12 12 14 16 18 19 20 22 24 26 25 23 24 24 20 15 13 14 15 15 16 17 18 19 20 22 22 22 22 22 26 31 33 33 32 30 25 20 16 16 18 18 17 17 17 16 14 13 12 10 9 8 9 9 8 7 6 7 8 7 5 4 8 12 14 16 18 18 17 17 17 17 17 17 18 18 19
8 8 9 10 12 13 14 14 15 15 16 18 19 21 22 23 23 25 26 26 26 25 20 16 15 13 11 11 13 15 16 17 17 17 18 20 21 22 27 32 33 33 34 30 23 19 18 18 18 17 16 16 16 14 13 13 11 10 9 8 8 8 7 7 6 7 7 5 3 4 8 10 11 14 17 17 16 16 16 16 17 17 17 17 17
10 10 10 12 15 16 14 13 14 15 16 18 20 21 22 22 22 23 25 26 27 27 24 20 17 14 12 11 12 13 15 16 15 15 16 18 18 19 21 24 25 28 29 22 16 17 18 18 15 13 14 15 14 12 12 12 11 11 12 10 8 7 7 5 5 6 6 5 4 6 9 10 10 13 14 14 15 15 15 16 16 15 14 13 14
13 12 12 14 17 17 15 13 13 13 14 16 18 19 19 20 20 21 22 23 25 26 25 23 19 15 13 13 12 13 14 15 16 16 15 15 16 17 18 19 19 21 21 15 12 16 19 17 13 11 11 11 11 11 11 11 10 11 10 7 4 4 4 3 3 4 5 5 6 9 10 11 12 12 12 12 12 14 15 15 13 11 11 12 14
13 12 13 15 17 17 16 13 12 13 15 16 16 16 17 18 18 18 17 18 20 22 22 23 22 18 15 14 13 13 14 15 15 17 17 16 16 16 16 15 14 15 16 15 14 16 15 13 12 12 10 9 10 12 12 12 11 9 6 4 3 3 3 1 1 3 5 7 8 10 11 13 14 14 12 12 12 13 12 10 9 10 13 15 16
12 12 13 16 17 17 16 12 11 13 15 15 15 15 15 15 14 14 13 12 13 15 17 20 21 19 16 14 13 14 15 14 14 16 18 17 16 15 13 12 12 13 15 14 13 13 13 12 13 13 12 11 12 12 12 11 9 5 4 5 6 6 4 3 5 7 7 8 9 10 12 13 13 12 11 11 11 9 8 9 10 12 14 15 17
12 12 12 15 16 17 15 13 11 12 13 14 13 13 13 12 11 10 9 8 7 8 11 14 15 15 13 12 12 13 12 11 11 14 17 18 17 15 14 13 12 14 16 17 16 14 14 14 14 14 14 14 13 12 12 11 8 5 6 9 9 8 6 6 7 8 7 8 9 10 11 12 11 9 10 11 10 8 8 9 11 12 14 17 19
13 13 12 15 16 16 16 15 14 13 13 12 11 12 12 11 10 9 8 6 6 7 9 11 11 11 10 11 11 9 8 7 9 11 14 16 14 13 13 14 14 14 16 17 17 16 15 15 15 15 15 15 12 10 9 10 9 8 10 11 10 8 8 8 8 7 7 8 8 8 11 11 10 9 10 9 8 9 10 11 12 15 18 20 21
12 13 14 16 17 17 16 17 17 15 14 12 10 9 10 10 9 9 8 7 5 4 4 5 4 3 4 6 6 7 10 7 4 5 10 15 16 16 16 16 16 16 16 15 15 15 16 16 16 16 16 16 15 13 13 13 12 11 11 10 8 6 6 6 7 7 7 7 6 7 10 10 10 9 8 7 8 10 12 14 16 18 20 20 18
11 12 13 14 16 17 18 18 16 15 13 12 10 9 9 8 8 8 9 9 9 8 7 6 5 5 5 4 7 11 12 11 11 13 16 18 19 20 20 20 21 21 19 16 15 15 16 17 17 17 17 17 17 15 13 12 11 9 8 6 5 4 4 4 5 6 6 6 5 6 8 9 10 9 7 7 9 12 14 16 18 19 19 17 16
9 10 12 13 15 16 18 20 19 16 14 12 11 12 13 12 11 10 11 11 10 10 10 10 9 10 11 13 15 16 15 15 16 18 20 21 21 22 24 25 24 23 21 18 18 17 17 17 18 18 16 16 16 13 10 7 6 6 5 3 3 3 3 4 5 5 5 5 4 5 7 9 10 8 6 8 11 13 15 17 19 19 17 16 17
8 9 10 11 12 14 16 18 19 19 18 16 13 12 14 15 16 15 14 14 13 12 11 10 10 10 12 13 13 13 13 14 16 19 22 24 24 25 26 25 24 23 21 20 19 17 16 17 16 14 13 13 14 12 10 7 5 4 2 2 2 3 4 5 5 5 4 4 4 5 7 9 9 7 6 8 12 14 15 17 17 17 16 16 18
7 8 8 9 10 11 12 14 16 17 18 19 17 15 13 13 13 13 12 11 11 11 11 11 11 10 10 10 9 9 10 13 16 19 20 21 21 21 21 20 19 19 19 19 17 14 13 13 12 8 7 8 10 10 8 6 4 1 0 1 2 4 5 5 6 6 6 5 4 5 7 8 9 9 8 10 12 13 14 15 15 16 17 17 18
6 7 7 8 9 8 9 10 12 13 14 16 17 17 16 14 12 11 10 9 9 9 9 10 10 11 11 9 8 8 10 13 15 17 17 16 15 14 14 14 14 14 16 18 17 13 11 10 8 6 5 7 8 7 5 4 1 1 1 1 2 4 4 5 6 8 8 7 6 6 7 8 10 10 10 11 11 11 12 13 15 16 17 17 17
6 7 6 7 8 8 8 8 8 9 10 10 12 14 15 15 15 13 11 10 10 9 8 8 9 10 10 9 9 9 11 13 15 16 15 14 13 12 11 11 11 12 13 13 11 8 8 9 9 6 6 7 7 5 4 2 1 1 1 1 2 4 4 5 6 8 10 10 8 7 8 9 10 10 11 13 12 10 10 12 14 15 16 16 16
4 6 6 6 6 6 7 7 6 7 7 7 8 10 11 13 14 14 12 12 12 12 11 11 12 12 12 13 13 14 14 15 15 15 13 11 10 9 7 6 7 9 9 8 6 5 7 9 9 8 7 7 6 4 3 1 1 1 1 2 3 3 4 4 5 7 10 10 10 10 9 9 10 11 12 13 12 11 10 11 12 14 15 15 15
3 3 4 5 5 5 6 6 5 5 5 4 3 5 7 9 11 12 12 11 11 11 12 12 12 13 13 13 12 13 13 13 13 13 12 10 7 5 3 2 3 5 5 5 6 6 7 9 9 8 7 6 4 3 2 1 1 1 1 2 3 3 3 4 5 6 8 10 11 12 11 10 11 12 13 12 12 11 10 10 11 13 15 14 13
Wind_Direction
187 184 182 181 181 181 179 177 181 188 191 192 190 192 198 195 192 193 191 186 183 178 174 169 161 157 150 145 142 136 133 131 128 127 123 120 120 111 102 102 110 108 110 115 110 107 109 109 111 111 110 105 91 89 94 87 94 94 88 105 90 74 107 126 125 138 136 124 137 146 130 130 131 8 353 10 23 17 5 12 10 360 356 2 5
190 186 182 183 186 188 186 183 186 190 187 188 191 193 198 197 192 191 189 185 182 179 178 176 174 172 166 164 162 156 154 151 148 148 137 133 136 129 124 124 126 124 120 120 122 124 120 112 117 117 115 117 119 122 113 95 106 113 105 110 111 100 98 82 90 118 124 132 168 159 109 130 189 255 337 13 27 39 349 353 356 341 339 346 349
184 186 189 190 190 193 193 190 191 194 189 189 193 198 202 200 195 191 186 185 183 179 182 184 178 178 179 179 177 174 175 176 175 172 162 161 165 159 161 156 145 151 122 106 129 166 157 145 136 136 137 138 145 155 137 117 119 135 131 132 136 129 123 107 91 113 113 104 151 165 125 109 151 242 328 354 16 37 132 357 14 350 320 326 335
182 188 194 195 193 194 193 191 193 196 192 189 193 203 207 202 197 191 185 186 183 178 188 190 179 180 187 187 189 190 190 192 192 189 190 193 194 202 217 220 218 220 166 148 221 265 255 258 261 210 194 189 178 173 153 128 110 139 146 154 165 148 137 122 102 126 135 97 127 174 223 51 116 39 313 325 3 9 16 50 64 49 315 323 333
184 186 190 195 196 194 193 194 197 199 197 192 192 202 209 202 195 191 188 189 183 179 194 193 180 186 190 187 195 198 198 203 203 202 210 214 217 233 244 243 241 236 213 207 226 249 252 258 268 255 242 230 174 158 165 144 129 147 156 160 174 172 162 143 122 138 160 138 153 199 247 292 171 350 337 213 316 319 244 264 312 275 295 330 333
180 182 184 190 193 192 195 200 202 201 199 191 190 200 208 202 195 192 192 193 183 184 200 195 187 197 196 188 196 203 208 216 211 210 224 226 223 238 244 243 244 229 228 242 240 246 252 235 232 250 256 216 180 183 188 169 162 173 174 169 173 177 170 151 138 153 166 157 198 215 233 262 219 168 244 297 324 309 241 247 251 240 252 300 321
175 177 178 186 192 194 198 204 204 203 199 188 186 200 206 201 196 192 192 194 188 193 204 197 192 201 199 194 204 212 221 230 218 213 224 229 229 237 234 234 246 240 238 252 253 257 265 247 233 243 241 211 207 217 222 216 210 205 197 199 203 208 217 174 166 185 183 174 197 217 232 264 238 232 269 293 316 301 256 236 232 249 277 301 314
181 182 185 193 199 199 200 201 198 199 198 188 184 190 191 188 192 192 192 195 197 204 207 199 201 206 202 204 214 218 221 225 222 214 213 221 236 248 246 246 257 252 241 242 238 240 246 238 230 225 214 217 228 237 243 249 253 235 217 217 223 235 259 247 193 187 190 201 249 247 246 264 268 277 285 274 254 252 256 255 265 283 293 298 308
181 182 192 202 204 199 194 195 196 198 200 196 192 189 181 179 184 190 198 203 207 213 209 205 215 217 213 218 225 225 224 227 232 229 218 226 243 255 255 251 248 243 243 249 251 252 253 248 241 228 215 221 234 254 267 263 260 248 231 229 235 243 254 236 196 201 232 238 261 272 264 266 284 294 288 269 262 266 273 277 280 285 290 298 309
169 170 187 200 201 192 181 184 195 200 203 204 202 198 191 188 188 189 196 202 210 216 212 210 220 223 222 225 227 229 231 236 241 236 226 234 250 260 261 256 256 264 273 271 265 263 262 255 249 244 235 232 241 261 268 256 250 248 245 248 254 259 260 232 196 207 232 232 240 272 266 257 275 290 279 270 283 287 285 284 283 286 294 302 308
144 152 173 185 185 178 167 173 187 195 200 200 200 202 201 200 202 203 201 203 211 219 218 217 220 225 229 230 232 234 236 238 239 234 231 236 246 258 265 265 271 279 284 283 275 269 265 255 248 243 235 236 245 256 256 244 233 235 242 254 260 263 267 258 234 229 236 236 236 252 266 264 265 268 264 260 263 268 275 282 286 291 297 299 298
124 127 142 152 156 157 148 160 179 188 194 196 202 212 214 212 217 219 214 212 216 220 221 220 221 227 233 234 237 242 243 244 245 244 246 246 246 255 262 264 271 276 277 281 278 269 264 255 245 234 220 221 231 238 239 228 223 227 231 241 251 256 261 265 263 258 257 256 252 249 255 261 261 259 259 261 263 265 271 279 286 292 295 295 294
83 84 87 94 111 123 123 134 156 170 181 194 199 206 216 221 225 228 224 220 222 224 227 227 227 233 240 240 241 245 249 254 256 253 252 252 252 256 260 263 269 271 270 272 266 255 249 238 226 215 200 202 211 216 220 215 215 225 232 239 247 252 256 259 260 259 259 261 260 255 253 256 258 260 262 265 268 271 275 280 286 292 295 296 295
70 71 66 61 65 74 95 115 126 141 160 180 184 182 200 215 216 222 224 223 226 230 233 236 236 239 244 246 246 249 254 258 260 261 262 263 262 261 261 261 258 248 244 241 210 204 200 184 185 189 187 201 206 201 206 213 214 225 238 247 251 254 258 259 259 258 255 255 256 258 259 261 262 266 270 273 275 279 284 287 292 295 296 296 296
61 61 61 57 58 53 48 57 63 72 110 141 160 173 183 198 208 217 223 225 229 233 235 238 240 242 247 252 254 257 260 261 263 267 272 270 264 257 250 238 211 184 182 170 152 158 162 152 157 178 192 204 200 186 199 229 254 260 258 258 259 264 269 266 265 265 262 260 259 258 261 265 267 269 272 275 279 285 290 294 297 298 298 298 300
56 52 54 53 54 53 49 50 51 47 50 52 37 32 192 204 220 227 231 232 233 235 238 242 246 247 251 257 260 259 259 262 266 269 269 260 248 238 225 202 184 176 172 164 163 170 167 157 171 197 208 219 217 204 215 234 251 265 274 281 280 277 277 273 267 263 261 264 266 265 266 268 269 270 273 279 285 290 294 297 299 300 300 301 301
50 42 40 40 39 43 49 50 54 60 55 42 19 345 338 318 270 251 242 236 234 239 245 249 251 251 251 257 263 262 259 260 261 258 248 234 225 222 212 191 180 184 183 179 184 189 179 170 183 203 211 222 232 229 232 238 231 230 251 277 284 280 278 283 279 269 266 270 272 272 271 270 271 275 280 285 291 294 297 299 300 300 302 304 305
45 37 32 31 26 24 30 33 45 64 48 24 17 36 10 344 320 303 283 258 250 257 261 256 255 256 254 252 255 257 255 250 241 234 225 219 222 220 202 179 183 201 204 200 200 200 194 186 193 208 214 221 234 238 245 253 245 231 228 245 266 273 278 289 291 284 278 274 275 277 278 277 278 280 284 289 293 296 299 302 304 306 309 312 315
24 23 25 25 21 16 14 11 21 106 63 23 29 65 33 337 318 303 292 290 282 274 273 264 252 247 239 230 229 234 236 226 219 222 222 222 226 215 189 179 198 207 209 215 212 208 207 204 205 216 224 231 243 248 251 254 247 237 226 219 235 257 268 275 279 279 278 278 280 284 285 284 283 284 286 289 294 300 304 307 308 311 313 317 322
350 352 4 9 2 352 345 331 304 270 273 307 302 273 249 250 301 289 280 283 280 267 261 247 232 231 226 214 211 217 222 216 215 223 225 222 219 203 187 187 204 201 202 220 223 215 214 214 214 218 224 233 244 246 250 252 241 235 231 222 225 240 250 256 263 271 275 278 281 285 289 291 293 295 298 300 304 309 310 308 308 312 314 315 314
306 318 338 345 333 320 316 311 306 303 300 292 280 271 259 246 245 268 274 268 259 257 255 242 234 237 230 213 208 216 228 234 229 223 216 208 202 194 190 192 199 199 203 218 227 226 222 214 212 218 226 238 247 245 246 248 239 234 234 232 234 240 246 251 258 265 271 278 285 293 301 306 308 310 315 318 316 314 307 296 294 298 296 291 288
303 311 312 301 290 290 294 299 303 305 304 296 287 280 274 262 250 253 265 262 253 253 255 249 242 237 229 220 217 223 237 244 237 220 208 203 198 195 197 197 194 197 201 208 220 228 222 204 206 225 230 231 239 246 249 252 249 242 237 237 242 247 251 257 264 269 275 283 288 291 288 286 286 292 300 300 296 295 296 291 287 286 281 277 282
306 305 298 292 291 291 293 297 300 300 300 299 296 289 281 273 262 252 252 258 259 255 254 251 246 240 235 234 232 233 239 244 237 220 208 204 201 198 199 200 196 192 195 203 217 226 220 210 219 239 233 224 233 246 253 258 258 254 249 248 250 252 254 260 267 273 275 275 274 274 274 274 274 273 268 259 259 266 274 277 278 280 280 278 277
301 298 297 296 295 295 297 298 296 293 291 293 292 288 284 281 274 265 258 258 261 261 258 254 251 246 241 240 240 236 235 240 239 228 214 207 205 203 203 204 203 199 202 212 222 227 225 222 229 234 224 218 228 239 249 255 256 257 258 257 257 260 262 264 266 267 267 270 278 286 286 278 268 260 257 259 265 272 275 278 279 280 280 278 275
299 298 298 295 290 287 284 280 278 278 279 279 279 278 280 281 278 273 268 263 261 262 260 256 255 253 247 244 243 238 234 236 236 228 219 216 215 213 211 211 210 210 212 217 222 224 224 224 226 222 213 217 229 238 247 253 258 262 265 268 272 275 272 263 250 245 248 258 271 276 273 268 265 265 268 275 282 284 282 279 274 272 275 278 276
298 296 295 295 293 290 286 282 279 275 271 271 273 275 276 276 275 273 270 266 263 263 262 260 258 256 253 249 245 240 234 231 228 225 224 224 223 220 215 212 213 213 213 214 218 219 218 218 217 214 213 221 231 242 248 255 263 268 272 279 283 276 261 254 256 258 258 257 261 268 270 265 264 270 279 287 291 290 284 277 274 275 280 285 287
293 292 292 293 294 293 292 289 285 281 276 272 271 270 270 272 274 274 271 269 266 262 261 262 261 259 258 257 253 250 246 241 239 237 232 226 225 223 218 214 213 208 205 208 212 214 216 215 212 211 219 227 234 241 247 255 264 271 277 285 280 260 261 273 279 279 272 259 249 249 253 259 267 277 285 287 286 286 285 283 284 287 290 292 295
297 297 295 290 288 289 290 286 281 280 280 278 275 273 271 270 271 270 270 273 275 269 264 263 262 259 256 253 252 252 251 248 248 247 238 230 227 221 214 211 211 208 209 212 213 215 218 219 215 216 225 234 237 240 246 255 263 265 267 263 246 264 285 295 301 299 267 243 248 259 266 275 282 286 287 287 286 286 286 286 289 292 296 299 303
287 294 296 296 297 297 294 291 289 287 285 282 279 278 276 273 271 268 266 267 269 270 269 267 265 259 251 247 249 251 250 249 251 249 245 240 231 221 217 219 221 221 222 220 216 217 221 221 221 225 231 235 237 242 249 252 250 244 240 229 222 243 272 289 297 273 250 256 270 281 288 290 287 285 289 292 290 288 290 295 301 306 310 314 314
284 290 290 285 286 290 289 284 284 285 284 283 283 281 277 273 271 272 272 268 265 267 271 273 272 267 257 250 249 249 247 249 251 248 246 243 232 223 222 223 223 225 226 222 220 223 227 227 228 230 232 235 238 240 235 226 221 231 251 257 235 227 242 250 247 251 264 278 291 299 298 294 291 291 294 295 293 295 302 310 316 318 317 315 311
300 301 297 285 279 284 288 283 274 269 269 277 287 289 285 279 274 275 279 281 276 274 276 277 276 275 272 266 260 254 249 250 251 249 245 243 240 235 226 215 213 220 223 220 222 227 227 226 229 229 228 231 227 206 200 208 214 230 252 266 264 257 259 255 252 264 284 296 298 294 290 293 297 299 299 299 300 305 312 317 317 313 309 306 304
304 303 304 299 291 289 292 291 282 273 269 273 282 288 291 291 284 277 277 281 283 281 281 282 282 281 280 277 273 270 264 260 261 262 250 240 241 244 237 223 219 221 220 217 221 227 225 224 227 226 218 211 198 190 201 210 210 212 224 243 261 267 268 263 268 284 302 307 307 310 303 294 293 293 294 298 302 307 311 313 311 309 306 304 304
311 306 306 308 305 302 301 299 293 285 280 279 279 281 284 288 291 286 279 274 274 277 284 289 288 284 282 281 280 280 278 272 268 268 263 253 251 250 239 226 221 222 221 219 221 224 221 217 218 211 196 190 195 200 205 211 212 213 216 214 218 232 238 249 269 289 295 295 304 315 300 291 293 296 300 306 309 309 310 310 309 309 310 308 307
329 324 322 322 320 314 309 304 299 295 292 287 283 281 280 280 283 285 282 275 270 272 279 292 295 289 283 281 281 281 280 276 267 261 260 263 263 250 229 220 221 222 224 224 221 218 211 202 198 192 184 190 203 206 207 212 218 221 219 206 199 216 233 240 250 260 274 290 308 321 307 306 310 311 312 316 316 312 311 312 313 312 309 308 308
341 339 332 325 317 308 302 298 296 295 295 293 290 288 285 282 279 279 279 277 273 273 279 290 297 293 282 277 277 276 271 266 263 257 251 253 253 237 220 220 223 220 218 215 209 200 192 186 186 186 184 193 208 211 209 213 216 216 213 203 200 216 232 238 246 265 287 312 346 347 317 315 318 316 315 317 318 316 314 313 311 309 309 310 314
341 340 330 321 316 310 302 296 292 290 291 293 292 290 288 285 281 278 275 271 269 271 275 279 282 284 279 270 272 276 272 262 256 253 249 247 246 236 226 225 219 208 202 198 188 181 186 186 184 188 192 199 207 209 205 206 207 201 197 198 203 216 228 239 257 286 314 337 356 320 308 310 315 314 314 314 313 311 308 306 305 307 311 314 315
346 340 329 323 323 323 318 308 299 296 297 297 296 295 293 289 287 283 277 270 266 265 265 264 270 282 291 286 277 279 278 266 251 246 246 243 242 241 239 235 220 203 197 190 167 163 177 179 176 188 200 200 201 203 201 201 199 194 196 203 212 221 233 254 290 322 337 347 343 323 314 310 306 305 305 308 309 307 304 303 305 309 313 317 322
346 338 328 325 329 334 335 329 320 316 316 314 310 307 304 301 299 295 285 273 263 258 257 260 267 278 291 297 290 282 277 266 247 236 232 229 228 230 229 226 216 204 200 194 164 159 167 167 166 183 198 194 190 192 191 188 191 199 207 211 209 220 241 287 342 340 329 326 322 317 315 315 312 306 301 302 303 299 296 297 304 316 327 333 335
342 338 331 329 335 340 340 340 341 339 336 333 328 320 312 307 307 307 300 282 265 256 254 256 260 265 279 294 293 281 274 264 245 233 227 219 216 217 214 209 202 196 199 203 194 179 172 168 173 188 199 196 189 190 187 185 191 203 204 170 158 203 230 234 277 278 290 303 310 317 325 328 323 315 305 294 290 291 298 310 329 343 343 340 339
346 347 340 335 340 346 345 345 349 348 345 345 343 335 324 316 314 318 316 299 276 261 252 249 253 262 272 281 282 275 271 265 248 235 228 219 212 211 209 204 199 198 199 197 186 176 174 178 184 188 189 187 187 191 190 185 185 190 175 166 185 208 212 211 237 258 279 300 310 323 334 334 330 327 319 310 309 320 342 357 358 353 347 345 345
351 350 346 341 347 356 359 358 356 351 349 354 356 352 343 337 338 340 334 318 292 263 246 247 258 266 262 263 272 272 263 258 252 239 228 221 216 210 201 191 187 188 185 174 166 169 177 181 182 185 187 188 191 196 192 182 172 173 186 195 206 212 209 226 255 273 295 309 314 327 336 338 342 342 331 327 338 1 12 7 360 356 356 354 349
355 354 356 355 358 5 10 10 7 2 356 357 6 13 9 2 1 360 348 326 303 277 260 261 270 265 249 254 265 249 216 229 264 252 225 208 193 177 170 168 164 164 165 165 170 179 183 182 182 186 190 190 190 189 185 178 175 186 202 213 225 231 233 247 270 288 302 305 310 327 338 343 351 348 334 339 7 26 22 13 9 6 1 355 348
2 360 6 9 8 10 12 10 8 8 7 3 5 15 17 12 13 18 16 8 358 327 281 266 267 250 236 246 238 182 156 165 219 208 176 167 161 157 162 167 165 160 156 157 165 175 182 185 188 188 186 182 176 173 176 179 182 195 214 228 243 257 261 269 283 296 300 297 308 333 344 349 356 355 348 358 21 27 21 16 12 7 1 353 348
14 7 11 13 10 12 16 14 11 14 20 19 16 16 16 14 20 34 38 39 47 62 80 89 82 74 80 118 143 136 132 142 153 150 148 155 161 163 164 166 167 168 167 161 158 167 179 187 188 185 185 186 187 189 193 194 197 213 235 252 270 284 289 295 301 301 296 294 312 338 348 354 359 1 3 15 22 23 21 17 10 5 2 357 355
22 18 18 14 9 13 20 23 23 23 29 35 39 41 44 46 49 54 59 63 70 81 91 98 99 99 104 120 135 141 143 149 151 149 151 158 161 161 162 163 163 164 163 160 160 170 182 188 188 189 195 202 207 211 215 216 216 225 241 270 301 316 325 329 324 314 306 307 323 339 351 2 5 3 15 32 30 23 19 15 8 5 4 3 2
21 25 24 18 15 15 17 22 27 28 30 36 46 55 63 69 70 68 69 74 81 90 100 108 114 118 121 128 136 144 151 156 155 151 151 155 157 159 161 162 159 155 154 156 164 175 184 188 192 201 213 216 211 207 206 212 222 227 242 303 327 347 353 348 344 338 329 323 332 344 357 7 8 2 16 38 34 23 18 15 10 4 2 3 4
17 25 26 21 23 26 23 23 26 26 27 33 42 50 61 72 75 72 72 75 82 93 103 109 115 122 129 138 144 149 153 158 156 151 149 151 153 154 156 159 160 159 159 163 170 181 189 190 197 214 222 202 192 192 200 214 225 229 21 353 353 7 9 5 7 7 356 347 352 358 1 8 9 6 17 36 34 22 16 16 11 5 4 6 6
9 18 25 21 22 28 31 32 33 31 30 33 39 44 49 55 61 67 73 78 85 94 102 109 120 132 140 146 148 149 154 159 158 154 153 155 156 156 157 162 168 172 172 172 178 190 201 205 215 230 208 182 182 193 209 220 240 357 26 8 11 18 19 18 19 17 13 10 6 1 2 7 7 7 18 31 32 23 17 15 11 8 8 8 4
12 16 25 29 27 25 27 33 36 39 42 46 48 50 51 52 55 60 64 67 72 81 88 96 111 126 134 133 128 128 140 151 155 156 158 159 156 153 153 155 161 171 176 177 183 201 221 229 236 238 212 194 194 197 198 208 295 336 6 33 24 17 17 19 20 21 20 18 14 9 10 9 7 11 23 30 27 20 17 14 10 9 10 7 1
39 31 26 29 31 28 30 35 37 42 51 60 64 64 63 60 58 60 64 69 75 82 89 96 105 113 119 122 124 128 134 141 145 147 151 151 148 147 143 137 145 161 171 177 190 208 214 215 218 218 211 205 200 189 184 225 308 334 9 15 3 359 2 7 12 16 20 21 20 17 12 5 6 17 27 28 21 14 14 14 12 12 12 5 357
77 60 43 44 46 37 30 32 36 44 51 58 74 86 89 82 70 63 65 71 80 88 97 107 115 121 124 128 132 136 140 145 148 150 152 153 150 146 135 110 125 151 163 172 185 192 191 192 196 200 201 200 191 177 186 256 326 8 12 352 346 348 351 355 0 6 13 19 21 18 14 13 20 27 27 21 14 11 11 12 14 14 10 3 359